ONEWEB-0022, 45135

Orbit data source: Space-Track

ONEWEB-0022, 45135 is a payload satellite owned by One Web (UK) in LEO that was launched on Thu, 06 Feb 2020 UTC via a SOYUZ-2-1B launch vehicle from the Tyuratam Missile And Space Complex (TTMTR). Payload-class satellites include a variety of spacecraft equipped with specific instruments for various scientific and technological missions. These include communications satellites like Starlink; space stations such as the ISS; scientific satellites like the Hubble; Earth observation satellites from companies like Planet Labs, Umbra, and HawkEye 360; GPS; miniature CubeSats for education and research; and military/defense satellites.

Loading next visibility...
Identifier
45135, 2020-008E
Orbit
LEO
Country
Flag of UKUK
Related business
Manufacturer
One Web
Mission
Non-operational Commercial Communications
Bus & Motor
ARROW, Unknown motor
Mass
148 kg wet, ~140 kg dry
Launch date (UTC)
2020-02-06 (6 years ago)
Launch vehicle
SOYUZ-2-1B
Launch site
Tyuratam Missile And Space Complex (TTMTR)
Object type
Payload
Rocket body
Debris
Shape & HBR
Trap Box + 2 Pan, 6.7 m
Radar Cross Section
3.464 m², Large (>1 m²)

Expand to show TLE details & history
Last TLE update: 2 days ago

TLE from 2 days ago
0 ONEWEB-0022
1 45135U 20008E   26171.31796708  .00000317  00000-0  87111-3 0  9998
2 45135  87.8843  35.6867 0001882  96.7440 263.3902 13.10486792308762
Epoch: 2026-06-20T07:37Z
TLE epoch observation values (Epoch: 2026-06-20T07:37:52.355Z)
Latitude
Longitude
12.68424°
Altitude
1,224.329 km
Speed
7.242 km/s
True Right ascension
02h 22m 44s
True Declination
0° 00' 00"
Sunlit
Object was in daylight at epoch
Visualization orbit readout
Latitude
Unknown
Longitude
Unknown
Altitude
Unknown
Speed
Unknown
Apparent Right ascension
Unknown
Apparent Declination
Unknown
Sunlit
N/A
Visualization observer readout
Local Sidereal Time
21:40:53
Azimuth
Unknown
Elevation
Unknown
Doppler factor
Unknown
Orbital elements
Apogee altitude
1,219.826 km
Perigee altitude
1,216.966 km
Semi-major axis
7,596.533 km
Eccentricity
0.00019
Inclination
87.8843°
RAAN
35.6867°
Arg. of periapsis
96.744°
True anomaly
263.36878°
Mean anomaly
263.3902°
Eccentric anomaly
263.37949°
Mean motion
3.27808 °/min
Orbital period
109.82 mins
BSTAR
0.00087111
Loading maneuver chart data...
Computing Atmospheric mass density...
Loading historical data...
Loading historical data...
Loading historical data...
Loading historical data...
Loading historical data...
Loading historical data...
Loading historical data...

Documentation

Showing up to 5 results
|